Regional Weather Roundup
Issued by NWS

Home | Current Version | Previous Version | Graphics & Text | Print | Product List | Glossary On
Versions: 1 2 3 4 5 6 7 8 9 10 11 12 13 14 15 16 17 18 19 20 21 22 23 24 25 26 27 28 29 30 31 32 33 34 35 36 37 38 39 40 41 42 43 44 45 46 47 48 49 50
000
ASUS43 KMPX 282001
RWRMN
WEATHER ROUNDUP FOR MINNESOTA
NATIONAL WEATHER SERVICE TWIN CITIES/CHANHASSEN MN
300 PM CDT SAT MAY 28 2016


NOTE: "FAIR" INDICATES FEW OR NO CLOUDS BELOW 12,000 FEET WITH NO
SIGNIFICANT WEATHER AND/OR OBSTRUCTIONS TO VISIBILITY. N/A MEANS
CURRENT SKY AND/OR WEATHER CONDITIONS ARE NOT AVAILABLE.

MNZ060>063-068>070-282100-
   Twin Cities Metro

CITY           SKY/WX    TMP DP  RH WIND       PRES   REMARKS
TWIN CITIES    CLOUDY    66  59  78 NW9       29.75F
ST PAUL        CLOUDY    67  60  78 NW10      29.75F
CRYSTAL        LGT RAIN  63  59  87 N8        29.75F FOG
BLAINE         CLOUDY    66  63  88 NW6       29.77S
EDEN PRAIRIE   LGT RAIN  64  60  87 NW6       29.76R FOG
SOUTH ST PAUL  CLOUDY    68  60  76 N8        29.75S
LAKE ELMO      DRIZZLE   68  64  88 N8        29.76F
$$
MNZ001>005-007-008-013>017-022>024-027-028-282100-
   Northwest Minnesota

CITY           SKY/WX    TMP DP  RH WIND       PRES   REMARKS
BEMIDJI        CLOUDY    60  56  84 N6        29.80R
HALLOCK        CLOUDY    72  55  56 E7        29.82F
ROSEAU         LGT RAIN  64  59  82 E13       29.83F
WARROAD        LGT RAIN  61  57  88 NE9       29.85S
THIEF RVR FALL CLOUDY    63  55  77 N7        29.83F
CROOKSTON      DRIZZLE   64  57  77 NE9       29.83S
FOSSTON        LGT RAIN  61  57  88 NE7       29.82R
DETROIT LAKES  CLOUDY    61  55  82 NE6       29.81S
MOORHEAD       CLOUDY    64  57  77 NE12      29.80S
PARK RAPIDS    CLOUDY    62  55  77 N5        29.79S
MAHNOMEN       CLOUDY    61  57  85 NE10      29.81R
$$
MNZ006-009>011-018-025>026-282100-
   North Central Minnesota

CITY           SKY/WX    TMP DP  RH WIND       PRES   REMARKS
BAUDETTE       CLOUDY    62  58  86 NE10      29.81F
FLAG ISLAND    CLOUDY    61  55  82 NE15      29.85S
INTL FALLS     CLOUDY    60  57  89 E9        29.81S FOG
WASKISH        CLOUDY    61  57  88 NE12      29.81S
BIG FORK       CLOUDY    61  57  88 NE3       29.79F FOG
LONGVILLE      CLOUDY    61  57  88 CALM      29.79S
GRAND RAPIDS   CLOUDY    60  58  92 CALM      29.80S FOG
CRANE LAKE     CLOUDY    57  57 100 CALM      29.82S FOG
ORR            CLOUDY    59  55  88 CALM      29.77F FOG
COOK           CLOUDY    61  59  94 NE5       29.79F FOG
WALKER         DRIZZLE   58  57  96 N3        29.79S
$$
MNZ012-019>021-037-282100-
   Northeast Minnesota

CITY           SKY/WX    TMP DP  RH WIND       PRES   REMARKS
DULUTH         CLOUDY    61  55  81 CALM      29.78S
ELY            DRIZZLE   59  57  94 NE3       29.79S
HIBBING        LGT RAIN  59  57  93 SE5       29.78F
EVELETH        CLOUDY    59  59 100 CALM      29.79F FOG
DULUTH HARBOR  CLOUDY    50  48  93 SE5       29.80S
TWO HARBORS    CLOUDY    63  57  82 E6        29.76R
SILVER BAY     FOG       57  55  94 NE7       29.77S VSB 1/4
GRAND MARAIS     N/A     53  49  86 E5        29.77F
G MARAIS ARPRT CLOUDY    63  57  82 NE6       29.80F
$$
MNZ029>031-032-039>041-046>048-054>057-064-282100-
   West Central Minnesota

CITY           SKY/WX    TMP DP  RH WIND       PRES   REMARKS
FERGUS FALLS   CLOUDY    64  54  68 NE6       29.77R
WHEATON        CLOUDY    70  57  64 NW14      29.81S
MORRIS         LGT RAIN  64  59  82 CALM      29.79F
ALEXANDRIA     LGT RAIN  62  56  80 CALM      29.82R
ELBOW LAKE     CLOUDY    64  56  76 SE5       29.81S
WADENA         CLOUDY    61  54  77 CALM      29.80R
GLENWOOD       LGT RAIN  61  57  88 NW3       29.80F
APPLETON       LGT RAIN  64  57  77 CALM      29.79F
ORTONVILLE     LGT RAIN  64  57  77 NW3       29.80S
MADISON        LGT RAIN  63  59  88 N6        29.79F
WILLMAR        CLOUDY    61  61 100 N5        29.80S
$$
MNZ033>034-036-042>043-049>051-058-059-282100-
   Central Minnesota

CITY           SKY/WX    TMP DP  RH WIND       PRES   REMARKS
ST CLOUD       LGT RAIN  61  58  90 N5        29.78F
SAUK CENTRE    RAIN      60  57  91 N5        29.80F
PAYNESVILLE    LGT RAIN  61  60  98 NW6       29.79S
AITKIN         CLOUDY    63  55  77 CALM      29.79R
PINE RIVER     CLOUDY    61  55  82 CALM      29.83S
BRAINERD       LGT RAIN  60  56  86 CALM      29.80S
STAPLES        CLOUDY    61  55  82 CALM      29.80S
LONG PRAIRIE   RAIN      59  55  88 CALM      29.81S
LITTLE FALLS   RAIN      61  55  82 NW3       29.80S
LITCHFIELD     CLOUDY    64  63  94 N3        29.79R
BUFFALO        CLOUDY    62  58  86 NW5       29.78F
MAPLE LAKE     PTSUNNY   64  60  89 NW6       29.78F
HUTCHINSON     CLOUDY    65  62  89 N3        29.78S
$$
MNZ037-044-045-052-053-282100-
   East Central Minnesota

CITY           SKY/WX    TMP DP  RH WIND       PRES   REMARKS
PRINCETON      LGT RAIN  63  57  82 NW6       29.78F
MORA           LGT RAIN  61  54  77 CALM      29.81S
CAMBRIDGE      CLOUDY    64  55  72 NW5       29.76F
RUSH CITY      LGT RAIN  65  58  80 CALM      29.78S
MOOSE LAKE     CLOUDY    63  54  72 NW6       29.77S
HINCKLEY       CLOUDY    63  59  88 W5        29.79S
CLOQUET        CLOUDY    61  55  82 CALM      29.78S
MCGREGOR       CLOUDY    61  57  88 SE5       29.80S
$$
MNZ071>073-080-081-089-090-097-098-282100-
   Southwest Minnesota

CITY           SKY/WX    TMP DP  RH WIND       PRES   REMARKS
MONTEVIDEO     DRIZZLE   63  61  94 N6        29.81F
GRANITE FALLS  CLOUDY    66  61  85 N7        29.81S
CANBY          CLOUDY    64  61  92 NW6       29.80F
MARSHALL       LGT RAIN  63  60  90 N12       29.79S
REDWOOD FALLS  CLOUDY    62  59  90 NW6       29.78S
OLIVIA         CLOUDY    68  64  88 NW7       29.77F
PIPESTONE      CLOUDY    64  57  77 NE6       29.78F
WINDOM         CLOUDY    66  61  82 CALM      29.77F
WORTHINGTON    LGT RAIN  66  61  84 N7        29.77S
JACKSON        CLOUDY    68  59  73 VRB6      29.77S
TRACY          RAIN      63  60  91 NE7       29.79S
SLAYTON        CLOUDY    64  60  88 N8        29.80S
$$
MNZ065>067-074>077-082>085-091>093-282100-
   South Central Minnesota

CITY           SKY/WX    TMP DP  RH WIND       PRES   REMARKS
MANKATO        PTSUNNY   64  61  88 CALM      29.76S
NEW ULM        CLOUDY    64  63  94 NE7       29.76S
ST JAMES       CLOUDY    61  57  88 NE5       29.77F
FAIRMONT       CLOUDY    64  61  88 CALM      29.77R THUNDER
GLENCOE        RAIN      63  63  98 CALM      29.77S
FARIBAULT      CLOUDY    66  63  88 SW3       29.76F
OWATONNA       RAIN      66  61  82 W10       29.76S
WASECA         CLOUDY    64  59  82 W12       29.77S
ALBERT LEA     CLOUDY    63  61  94 W9G23     29.78R
$$
MNZ078>079-086>088-094>096-282100-
   Southeast Minnesota

CITY           SKY/WX    TMP DP  RH WIND       PRES   REMARKS
ROCHESTER      PTSUNNY   73  65  75 SW20      29.77F
RED WING       CLOUDY    73  64  73 SE5       29.73S
STANTON        CLOUDY    68  63  85 W10G18    29.75R
DODGE CENTER   SUNNY     73  61  64 S12G20    29.76F
WINONA         MOSUNNY   77  61  57 CALM      29.75F
AUSTIN         PTSUNNY   72  63  73 S9        29.76S
PRESTON        PTSUNNY   73  62  68 SW8       29.77F
$$
ABBREVIATIONS USED IN REMARKS
   TC - TEMPERATURES IN CELSIUS
  WCI - WIND CHILL INDEX
   HX - HEAT INDEX
  VSB - VISIBILITY
$$




USA.gov is the U.S. government's official web portal to all federal, state and local government web resources and services.